Location: Novo Ouro Preto
(19.8840°S, 43.9844°W)
Time: 03:24:09
(UTC+00:00)

Cosmos 1844 Rocket - Visible Passes

Search period start: 26 January 2021 00:00
Search period end: 05 February 2021 00:00
Orbit: 824 x 845 km, 71.0° (Epoch: 25 January)

Date Brightness Start Highest point End Pass type
(mag) Time Alt. Az. Time Alt. Az. Time Alt. Az.
26 Jan 4.1 07:00:19 10° NNE 07:05:19 35° ENE 07:10:22 10° SE visible
27 Jan 4.2 06:43:48 12° NNE 06:48:07 31° ENE 06:53:00 10° SE visible
28 Jan 4.4 06:27:53 17° NNE 06:30:55 28° ENE 06:35:36 10° SE visible
28 Jan 3.9 08:10:14 10° WNW 08:14:37 24° WSW 08:19:02 10° SSW visible
29 Jan 4.5 06:11:53 21° NE 06:13:43 25° ENE 06:18:10 10° SE visible
29 Jan 3.7 07:53:36 14° WNW 07:57:21 26° WSW 08:02:01 10° SSW visible
30 Jan 4.5 05:55:49 21° ENE 05:56:32 22° ENE 06:00:42 10° SE visible
30 Jan 3.6 07:37:31 21° WNW 07:40:06 30° WSW 07:44:57 10° S visible
31 Jan 4.8 05:39:41 19° E 05:39:41 19° E 05:43:11 10° ESE visible
31 Jan 3.4 07:21:23 29° W 07:22:51 33° WSW 07:27:53 10° S visible
01 Feb 5.1 05:23:29 16° E 05:23:29 16° E 05:25:37 10° ESE visible
01 Feb 3.2 07:05:10 37° W 07:05:36 37° WSW 07:10:47 10° S visible
02 Feb 5.4 05:07:13 12° ESE 05:07:13 12° ESE 05:07:58 10° ESE visible
02 Feb 3.2 06:48:54 41° SW 06:48:54 41° SW 06:53:40 10° S visible
03 Feb 3.5 06:32:35 39° SSW 06:32:35 39° SSW 06:36:31 10° S visible
04 Feb 3.9 06:16:12 32° SSW 06:16:12 32° SSW 06:19:22 10° S visible
